Satellite: AUBIESAT
Catalog number: 37854
Epoch time: 12333.90055540
Element set: 0353
Inclination: 101.7063 deg
RA of node: 089.6818 deg
Eccentricity: 0.0243115
Arg of perigee: 239.6479 deg
Mean anomaly: 118.0476 deg
Mean motion: 14.82092498 rev/day
Decay rate: 8.122e-05 rev/day^2
Epoch rev: 05877
Checksum: 314
Satellite: HRBE
Catalog number: 37855
Epoch time: 12333.93411545
Element set: 0358
Inclination: 101.7069 deg
RA of node: 089.6178 deg
Eccentricity: 0.0243885
Arg of perigee: 239.7938 deg
Mean anomaly: 117.8907 deg
Mean motion: 14.81870206 rev/day
Decay rate: 7.275e-05 rev/day^2
Epoch rev: 05877
Checksum: 348
Satellite: RS-39
Catalog number: 38051
Epoch time: 12334.10083333
Element set: 932
Inclination: 051.6361 deg
RA of node: 092.2583 deg
Eccentricity: 0.0012175
Arg of perigee: 264.9735 deg
Mean anomaly: 092.4386 deg
Mean motion: 15.27664053 rev/day
Decay rate: 1.1757e-04 rev/day^2
Epoch rev: 4714
Checksum: 296
Satellite: E-STAR
Catalog number: 38079
Epoch time: 12333.99452975
Element set: 672
Inclination: 069.4793 deg
RA of node: 295.7059 deg
Eccentricity: 0.0686674
Arg of perigee: 037.7903 deg
Mean anomaly: 326.9238 deg
Mean motion: 14.27909798 rev/day
Decay rate: 5.5487e-04 rev/day^2
Epoch rev: 4099
Checksum: 393
Satellite: GOLIAT
Catalog number: 38085
Epoch time: 12334.04585961
Element set: 648
Inclination: 069.4943 deg
RA of node: 296.5077 deg
Eccentricity: 0.0690935
Arg of perigee: 038.2684 deg
Mean anomaly: 326.5336 deg
Mean motion: 14.26554255 rev/day
Decay rate: 5.0722e-04 rev/day^2
Epoch rev: 4097
Checksum: 337
Satellite: HORYU-2
Catalog number: 38340
Epoch time: 12333.87212165
Element set: 260
Inclination: 098.1930 deg
RA of node: 274.1429 deg
Eccentricity: 0.0012962
Arg of perigee: 163.2126 deg
Mean anomaly: 196.9493 deg
Mean motion: 14.70441332 rev/day
Decay rate: 1.362e-05 rev/day^2
Epoch rev: 2867
Checksum: 286
Satellite: RS-40
Catalog number: 38736
Epoch time: 12333.71373150
Element set: 0117
Inclination: 082.4774 deg
RA of node: 280.1204 deg
Eccentricity: 0.0020090
Arg of perigee: 047.5009 deg
Mean anomaly: 312.7766 deg
Mean motion: 12.42648052 rev/day
Decay rate: 1.0e-07 rev/day^2
Epoch rev: 01534
Checksum: 255
Satellite: PROITERES
Catalog number: 38756
Epoch time: 12334.07707932
Element set: 271
Inclination: 098.2770 deg
RA of node: 041.2620 deg
Eccentricity: 0.0013284
Arg of perigee: 028.6657 deg
Mean anomaly: 331.5263 deg
Mean motion: 14.73997199 rev/day
Decay rate: 9.07e-06 rev/day^2
Epoch rev: 1191
Checksum: 306
Satellite: AENEAS
Catalog number: 38760
Epoch time: 12331.09885406
Element set: 0078
Inclination: 064.6717 deg
RA of node: 176.3169 deg
Eccentricity: 0.0217708
Arg of perigee: 268.8856 deg
Mean anomaly: 088.7278 deg
Mean motion: 14.79719125 rev/day
Decay rate: 5.825e-05 rev/day^2
Epoch rev: 01081
Checksum: 345
Satellite: CSSWE-D
Catalog number: 38761
Epoch time: 12331.09776106
Element set: 0075
Inclination: 064.6716 deg
RA of node: 176.3126 deg
Eccentricity: 0.0218812
Arg of perigee: 269.1264 deg
Mean anomaly: 088.4760 deg
Mean motion: 14.79577606 rev/day
Decay rate: 3.485e-05 rev/day^2
Epoch rev: 01081
Checksum: 315
Satellite: CXBN-E
Catalog number: 38762
Epoch time: 12331.09435020
Element set: 0073
Inclination: 064.6742 deg
RA of node: 176.3044 deg
Eccentricity: 0.0218501
Arg of perigee: 268.8055 deg
Mean anomaly: 088.8008 deg
Mean motion: 14.79687279 rev/day
Decay rate: 3.955e-05 rev/day^2
Epoch rev: 01081
Checksum: 307
Satellite: OBJECT F
Catalog number: 38763
Epoch time: 12331.09521348
Element set: 0070
Inclination: 064.6721 deg
RA of node: 176.2976 deg
Eccentricity: 0.0219096
Arg of perigee: 269.1219 deg
Mean anomaly: 088.4779 deg
Mean motion: 14.79612116 rev/day
Decay rate: 3.305e-05 rev/day^2
Epoch rev: 01065
Checksum: 309
Satellite: CINEMA-G
Catalog number: 38764
Epoch time: 12331.09425324
Element set: 0070
Inclination: 064.6710 deg
RA of node: 176.2896 deg
Eccentricity: 0.0218833
Arg of perigee: 269.1871 deg
Mean anomaly: 088.4155 deg
Mean motion: 14.79647670 rev/day
Decay rate: 3.451e-05 rev/day^2
Epoch rev: 01081
Checksum: 310
Satellite: CP5
Catalog number: 38765
Epoch time: 12331.09088809
Element set: 0069
Inclination: 064.6723 deg
RA of node: 176.2735 deg
Eccentricity: 0.0217953
Arg of perigee: 268.8559 deg
Mean anomaly: 088.7571 deg
Mean motion: 14.79769807 rev/day
Decay rate: 4.158e-05 rev/day^2
Epoch rev: 01081
Checksum: 360
Satellite: RAIKO
Catalog number: 38852
Epoch time: 12334.21889957
Element set: 58
Inclination: 051.6655 deg
RA of node: 020.8627 deg
Eccentricity: 0.0015968
Arg of perigee: 336.1948 deg
Mean anomaly: 023.8210 deg
Mean motion: 15.55475611 rev/day
Decay rate: 3.5242e-04 rev/day^2
Epoch rev: 857
Checksum: 316
Satellite: FITSAT 1
Catalog number: 38853
Epoch time: 12334.14121934
Element set: 57
Inclination: 051.6504 deg
RA of node: 021.0852 deg
Eccentricity: 0.0015428
Arg of perigee: 348.9601 deg
Mean anomaly: 011.0390 deg
Mean motion: 15.56296657 rev/day
Decay rate: 4.8718e-04 rev/day^2
Epoch rev: 861
Checksum: 284
Satellite: TechEdSat
Catalog number: 38854
Epoch time: 12333.60007097
Element set: 0060
Inclination: 051.6467 deg
RA of node: 023.4723 deg
Eccentricity: 0.0014882
Arg of perigee: 353.0892 deg
Mean anomaly: 006.7850 deg
Mean motion: 15.57921690 rev/day
Decay rate: 6.6880e-04 rev/day^2
Epoch rev: 00853
Checksum: 300
Satellite: F 1
Catalog number: 38855
Epoch time: 12334.18104739
Element set: 64
Inclination: 051.6469 deg
RA of node: 020.5947 deg
Eccentricity: 0.0016979
Arg of perigee: 356.6539 deg
Mean anomaly: 003.0313 deg
Mean motion: 15.57795945 rev/day
Decay rate: 6.1493e-04 rev/day^2
Epoch rev: 851
Checksum: 324
Satellite: WeWish
Catalog number: 38856
Epoch time: 12333.55387142
Element set: 68
Inclination: 051.6476 deg
RA of node: 023.1561 deg
Eccentricity: 0.0018939
Arg of perigee: 343.6590 deg
Mean anomaly: 016.3768 deg
Mean motion: 15.61118417 rev/day
Decay rate: 1.06296e-03 rev/day^2
Epoch rev: 842
Checksum: 308
/EX
More information about the Keps
mailing list